This demonstration page uses our WeatherBlox Daily Observations layout. Learn more.

Left ArrowRight Arrow

47.50024, -111.30081

Hourly Observations for April 19, 2022

Temp ( °F °C ) Dew Point ( °F °C ) Humidity (%) Winds ( mph kmh ) Pressure ( in mb ) Visibility ( mi km ) Precip ( " mm )
12:53 am 00:53 Clear 36 2.2 26 -3.3 67 67 NE 6 9 29.62 1003 10 16 0.00 0.00
1:53 am 01:53 Clear 41 5 26 -3.3 55 55 Calm 29.55 1001 10 16 0.00 0.00
2:53 am 02:53 Clear 42 5.6 26 -3.3 53 53 SSE 12 19 29.50 999 10 16 0.00 0.00
3:53 am 03:53 Mostly Clear 40 4.4 27 -2.8 60 60 SSE 3 6 29.48 998 10 16 0.00 0.00
4:53 am 04:53 Clear 36 2.2 27 -2.8 70 70 SSW 7 11 29.48 998 10 16 0.00 0.00
5:53 am 05:53 Clear 32 0 27 -2.8 82 82 W 9 15 29.49 999 10 16 0.00 0.00
6:53 am 06:53 Partly Cloudy 34 1.1 28 -2.2 79 79 SW 7 11 29.50 999 10 16 0.00 0.00
7:53 am 07:53 Cloudy 42 5.6 29 -1.7 60 60 W 23 37 29.55 1001 10 16 0.00 0.00
8:53 am 08:53 Cloudy 44 6.7 25 -3.9 47 47 WSW 23 37 29.58 1002 10 16 0.00 0.00
9:53 am 09:53 Mostly Cloudy 47 8.3 25 -3.9 42 42 SW 21 33 29.60 1002 10 16 0.00 0.00
10:53 am 10:53 Mostly Sunny 47 8.3 19 -7.2 33 33 WSW 26 43 29.59 1002 10 16 0.00 0.00
11:53 am 11:53 Sunny 48 8.9 20 -6.7 33 33 WSW 21 33 29.60 1002 10 16 0.00 0.00
12:53 pm 12:53 Sunny 50 10 16 -8.9 26 26 SW 26 43 29.62 1003 10 16 0.00 0.00
1:53 pm 13:53 Sunny 51 10.6 15 -9.4 24 24 WSW 31 50 29.60 1003 10 16 0.00 0.00
2:53 pm 14:53 Sunny 51 10.6 13 -10.6 22 22 WSW 32 52 29.61 1003 10 16 0.00 0.00
3:53 pm 15:53 Mostly Sunny 51 10.6 12 -11.1 21 21 WSW 23 37 29.61 1003 10 16 0.00 0.00
4:53 pm 16:53 Sunny 50 10 11 -11.7 21 21 WSW 28 44 29.62 1003 10 16 0.00 0.00
5:53 pm 17:53 Sunny 49 9.4 11 -11.7 21 21 W 28 44 29.63 1003 10 16 0.00 0.00
6:53 pm 18:53 Sunny 47 8.3 13 -10.6 25 25 W 21 33 29.64 1004 10 16 0.00 0.00
7:53 pm 19:53 Sunny 43 6.1 13 -10.6 29 29 WSW 21 33 29.63 1003 10 16 0.00 0.00
8:53 pm 20:53 Clear 39 3.9 13 -10.6 34 34 WSW 17 28 29.65 1004 10 16 0.00 0.00
9:53 pm 21:53 Clear 39 3.9 13 -10.6 34 34 WSW 18 30 29.67 1005 10 16 0.00 0.00
10:53 pm 22:53 Clear 36 2.2 15 -9.4 42 42 WSW 16 26 29.69 1005 10 16 0.00 0.00
11:53 pm 23:53 Clear 33 0.6 17 -8.3 52 52 WSW 13 20 29.70 1006 10 16 0.00 0.00

Powered by AerisWeather